Lapse_Rate
7.2 7.3 7.3 7.3 7.3 7.4 7.5 7.6 7.6 7.5 7.6 7.7 7.6 7.7 7.7 7.6 7.6 7.6 7.6 7.7 7.9 8.0 8.0 8.2 8.6 8.3 7.9 7.8 8.2 8.7 8.5 9.2 9.1 7.7 7.0 6.7 6.2 5.5 5.0 4.9 4.7 5.2 5.3 5.4 5.2
6.9 7.1 7.2 7.2 7.2 7.1 7.2 7.3 7.4 7.5 7.5 7.5 7.5 7.4 7.5 7.6 7.6 7.5 7.5 7.7 7.9 8.0 8.0 8.0 7.9 8.2 8.0 9.2 8.2 8.6 9.3 8.3 7.9 7.5 7.2 7.0 6.3 5.7 5.6 5.5 4.9 5.4 5.5 5.2 5.1
6.5 6.6 6.9 7.1 7.1 7.1 7.0 7.0 7.2 7.3 7.3 7.3 7.3 7.3 7.3 7.4 7.5 7.8 7.7 7.9 8.0 8.0 8.0 8.5 8.3 7.8 8.8 9.6 8.5 9.1 8.7 7.9 7.7 7.5 7.1 6.6 6.5 6.5 5.9 5.2 5.7 5.4 5.6 4.9 5.1
6.3 6.4 6.5 6.6 6.8 6.9 6.9 6.9 6.9 7.0 7.1 7.1 7.2 7.2 7.1 7.2 7.6 7.5 7.6 7.9 8.0 8.0 8.1 8.3 8.0 8.7 9.5 9.5 9.2 8.8 8.0 7.6 7.4 7.3 7.0 6.8 6.6 6.1 5.7 5.0 5.7 5.4 5.2 5.3 4.9
6.2 6.2 6.3 6.4 6.4 6.5 6.6 6.7 6.7 6.8 6.9 7.0 7.0 7.0 7.0 6.9 7.0 7.2 7.4 7.9 8.2 8.0 8.1 8.1 7.8 9.2 9.7 9.6 9.0 8.7 7.9 7.6 7.3 7.0 6.8 6.6 6.2 5.6 5.2 5.0 5.7 5.4 5.3 5.3 4.7
6.4 6.3 6.2 6.3 6.4 6.4 6.4 6.4 6.4 6.5 6.7 6.8 7.0 6.9 6.8 6.8 7.5 7.0 7.4 7.7 8.1 8.2 8.2 7.9 7.8 8.5 9.3 9.1 8.5 9.0 8.3 7.7 7.2 7.0 6.7 6.4 6.1 6.0 5.3 5.0 5.7 5.6 5.6 5.5 5.4
6.0 6.2 6.4 6.3 6.3 6.3 6.4 6.4 6.3 6.2 6.3 6.5 6.7 6.8 6.6 7.4 6.4 7.2 7.4 7.4 7.7 8.1 8.1 7.8 8.0 8.5 9.4 9.6 8.7 8.9 8.8 8.2 7.8 7.4 7.0 6.8 6.5 5.7 6.2 6.1 6.0 5.6 5.5 5.4 5.1
5.7 5.9 6.0 6.2 6.3 6.3 6.3 6.4 6.3 6.2 6.1 6.2 6.3 6.4 6.9 7.2 6.6 7.4 7.5 7.5 7.5 7.5 7.7 7.7 8.0 8.2 8.7 9.2 8.7 9.1 9.0 8.4 8.4 8.3 7.5 7.5 6.9 5.8 6.0 6.1 5.4 5.7 5.6 5.3 5.2
5.7 5.7 5.8 6.0 6.2 6.3 6.3 6.4 6.3 6.2 6.1 6.0 6.0 5.7 6.9 7.0 7.0 7.6 7.4 7.5 7.6 7.9 7.9 8.0 8.1 8.3 9.1 9.1 8.4 7.8 8.0 8.2 8.7 9.4 8.3 8.1 7.3 6.1 5.6 5.4 5.7 5.9 6.1 5.9 5.7
5.7 5.6 5.7 5.8 6.0 6.1 6.2 6.3 6.3 6.2 6.0 5.8 5.8 5.8 7.1 7.5 7.2 7.4 7.6 7.4 7.4 8.0 8.0 8.0 8.4 8.4 9.2 9.6 8.2 7.6 7.8 7.9 8.2 8.8 8.8 8.5 7.9 6.5 6.3 5.9 5.3 5.2 6.0 5.5 5.7
5.2 5.5 5.5 5.5 5.8 6.0 5.9 6.1 5.8 5.8 5.7 6.1 6.2 6.1 6.7 6.9 6.7 6.9 7.7 7.3 7.4 7.8 8.2 8.3 8.5 8.6 9.7 9.3 8.5 8.9 8.4 7.8 8.9 8.9 9.2 8.2 7.8 7.4 6.5 6.6 6.0 5.5 5.4 5.1 4.9
4.7 5.0 5.3 5.2 5.5 5.7 5.9 5.5 4.6 5.4 5.8 6.4 6.4 5.6 6.4 6.5 6.6 6.8 7.1 7.2 7.4 7.7 8.2 8.6 8.2 8.9 9.8 9.7 9.2 8.7 9.0 9.3 9.5 8.9 9.1 9.3 8.2 7.8 7.2 7.0 6.7 6.2 5.6 5.5 5.3
4.2 4.5 4.8 5.0 5.2 5.3 5.6 5.4 5.4 5.5 5.0 6.6 6.4 6.2 6.5 6.3 6.5 6.8 6.9 7.2 7.5 7.9 8.4 8.5 8.4 9.3 9.8 9.7 9.3 9.7 9.8 9.8 9.5 9.0 9.4 9.7 9.4 7.9 7.7 7.5 7.1 6.9 6.3 6.1 5.9
3.6 4.0 4.4 4.6 4.8 5.2 4.8 4.3 5.4 5.2 4.5 5.9 6.4 6.6 6.0 6.1 6.3 6.6 6.9 7.3 7.6 7.9 8.4 8.7 9.4 9.6 9.7 9.7 9.6 9.6 9.4 9.7 9.7 9.6 9.8 9.5 9.7 9.2 7.8 7.9 7.4 7.1 6.6 6.3 5.9
3.2 3.4 3.9 4.1 4.2 4.5 3.7 5.6 5.5 5.2 5.8 7.2 7.8 7.2 7.3 6.1 6.9 6.6 7.1 7.3 7.4 7.8 8.5 8.4 9.5 9.7 9.7 9.8 9.6 9.9 9.9 9.7 9.7 9.7 9.7 9.7 9.6 9.6 8.8 8.0 7.8 7.4 7.0 6.5 6.2
2.9 3.2 3.6 3.2 4.4 4.0 3.9 4.8 4.8 4.9 5.8 7.2 7.8 6.8 6.7 6.4 6.6 7.3 7.1 7.3 7.7 8.3 8.6 8.8 9.6 9.7 9.7 9.7 9.6 9.7 9.7 9.7 9.7 9.7 9.7 9.8 9.6 9.5 9.4 8.6 8.1 7.6 7.3 7.0 6.6
3.0 2.8 3.4 3.5 4.4 3.8 4.3 5.0 4.5 5.0 6.5 7.4 7.5 7.0 6.9 6.9 6.9 7.3 7.1 7.3 7.4 7.9 8.4 8.7 9.6 9.7 9.7 9.7 9.5 9.7 9.7 9.7 9.7 9.7 9.7 9.7 9.4 9.6 9.7 9.3 8.5 8.0 7.6 7.3 7.0
2.9 2.6 3.0 3.8 4.2 3.7 4.1 4.0 4.4 5.3 6.1 7.8 8.5 7.3 7.3 7.3 7.2 7.3 7.4 7.4 7.5 7.9 8.1 8.3 9.4 9.7 9.7 9.7 9.7 9.7 9.7 9.7 9.4 9.6 9.7 9.6 9.7 9.5 9.7 9.6 9.1 8.5 8.1 7.6 7.3
3.9 2.9 2.9 3.8 4.2 3.8 4.1 3.1 3.6 5.3 6.2 7.5 9.6 8.6 7.6 7.7 7.7 7.6 7.7 7.5 7.5 7.7 8.1 8.5 8.9 9.5 9.7 9.7 9.7 9.7 9.7 9.7 9.6 9.7 9.8 9.9 9.7 9.4 9.7 9.6 9.3 9.6 8.6 8.1 7.7
6.3 4.8 3.9 3.8 3.8 3.2 2.8 1.9 3.5 5.0 6.7 8.1 8.4 9.7 9.1 8.0 7.9 7.8 8.0 7.5 7.8 7.8 8.2 9.3 9.2 9.6 9.6 9.7 9.5 9.6 9.7 9.4 9.6 9.3 9.1 9.9 9.7 9.7 9.6 9.5 9.3 9.5 9.6 8.6 8.3
6.8 6.2 5.9 4.4 4.1 3.4 1.7 1.9 3.1 4.6 7.0 7.3 8.6 9.5 9.6 9.3 8.4 8.1 7.9 7.8 7.8 7.9 8.3 8.9 9.6 9.6 9.7 9.1 9.1 9.2 9.6 9.6 9.6 9.7 9.7 9.5 9.4 9.6 9.2 8.9 9.1 9.5 9.2 9.2 8.9
6.6 6.4 6.9 6.0 4.8 3.5 2.8 2.7 3.3 4.1 6.6 6.5 6.9 8.4 9.6 9.7 9.6 9.1 8.2 8.2 8.0 8.2 8.3 8.7 9.6 9.6 9.4 9.7 9.4 9.5 9.4 9.6 9.6 9.4 9.5 9.5 9.8 9.6 9.5 9.3 9.3 9.6 9.2 9.2 9.1
7.2 7.4 7.7 7.2 5.2 4.4 3.8 3.5 3.5 4.1 5.8 6.2 6.7 7.8 9.0 9.2 9.6 9.7 9.5 9.3 8.5 8.3 8.2 8.4 9.1 9.7 9.7 9.7 9.6 9.2 9.6 9.6 9.6 9.4 9.6 9.8 9.7 9.7 9.7 9.6 9.4 9.2 8.8 9.1 9.2
7.3 7.0 7.5 6.9 6.6 5.5 5.3 5.0 4.6 4.7 5.9 6.2 6.7 7.2 8.5 8.6 9.0 9.5 9.7 9.6 9.4 8.9 8.6 8.6 9.1 9.4 9.7 9.7 9.5 9.3 9.6 9.7 9.7 9.6 9.5 9.7 9.8 9.8 9.7 9.6 9.1 9.0 8.7 8.8 8.9
6.9 6.8 7.0 7.4 7.1 7.2 6.6 6.2 6.3 6.1 6.3 6.3 6.4 6.9 8.0 8.2 8.9 9.5 9.7 9.7 9.7 9.7 9.5 9.0 8.8 9.4 9.4 9.7 9.7 9.6 9.2 9.7 9.7 9.7 9.6 9.6 9.8 9.1 9.8 9.6 9.6 9.1 8.6 8.6 8.6
7.2 6.9 6.9 6.4 6.7 7.0 8.5 6.4 5.8 6.8 7.1 7.0 6.5 7.3 7.7 8.3 8.8 9.6 9.6 9.7 9.7 9.7 9.7 9.4 8.9 9.1 9.3 9.3 9.6 9.7 9.7 9.6 9.7 9.7 9.6 9.5 9.6 9.3 9.5 9.4 9.3 9.2 8.9 8.7 8.5
7.1 7.1 6.7 7.2 6.9 7.9 8.3 8.3 8.0 7.1 8.1 7.9 7.5 7.4 7.7 8.6 8.7 9.0 9.2 9.6 9.7 9.7 9.6 9.5 9.4 9.3 9.2 9.1 9.5 9.6 9.7 9.7 9.6 9.7 9.7 9.7 9.5 9.6 9.8 9.7 9.4 9.4 9.2 9.0 8.9
Wind_Speed
23 24 25 25 24 24 24 24 24 24 23 24 24 23 22 22 25 6 10 2 4 18 5 13 13 16 17 19 19 13 4 10 13 16 11 8 17 19 17 14 8 13 20 20 20
24 24 24 24 25 25 25 24 25 25 24 23 23 23 21 20 10 15 2 6 13 13 8 14 16 14 14 17 8 9 10 13 14 12 8 12 12 20 18 17 16 21 23 22 22
25 25 26 26 26 25 24 24 25 26 26 24 24 23 22 18 10 14 4 6 9 12 13 17 17 19 20 14 20 5 14 14 14 14 14 11 9 7 20 14 19 22 23 22 21
27 27 28 28 28 27 26 26 25 25 26 25 23 23 22 6 7 7 8 6 9 9 13 16 21 21 23 2 10 18 16 15 14 11 14 11 11 18 17 19 20 21 22 22 19
26 27 28 29 29 29 29 28 26 25 25 25 21 18 9 9 19 6 10 10 9 9 13 15 19 19 14 8 9 16 15 13 14 14 12 17 16 16 17 22 22 20 18 17 15
25 26 28 29 30 31 31 31 29 26 25 24 18 14 6 17 20 10 10 7 11 13 15 14 19 14 14 28 3 1 15 14 14 11 17 16 17 14 14 22 21 19 17 17 18
25 26 27 29 31 31 33 33 31 27 24 20 14 6 12 20 15 8 11 14 14 15 15 16 16 15 15 6 22 19 16 13 13 13 16 17 18 15 17 18 16 15 15 14 14
26 26 27 29 31 33 34 35 32 29 21 16 8 8 10 15 27 21 12 15 17 14 15 18 12 14 14 21 18 29 10 3 10 14 8 14 12 17 18 16 15 17 15 13 15
26 27 29 29 32 33 36 39 34 25 15 11 6 8 16 4 19 19 21 17 17 15 15 14 10 16 12 13 11 12 8 17 15 9 15 8 17 18 18 15 15 15 15 14 14
25 28 30 33 33 34 38 39 21 11 8 9 11 10 21 19 15 19 19 18 16 15 16 14 11 14 15 12 5 15 20 14 17 8 8 17 18 17 18 18 15 16 15 16 17
25 27 31 34 36 35 19 8 5 6 12 15 12 16 22 20 17 18 20 19 20 17 18 19 14 16 21 19 25 28 14 25 19 12 5 4 17 18 16 15 17 16 15 14 15
25 27 29 35 38 38 14 7 10 8 11 18 27 25 25 14 11 14 19 22 21 20 20 19 19 21 20 14 28 9 24 14 15 9 2 14 20 18 17 15 17 17 17 17 17
24 26 29 36 41 17 10 14 9 14 9 20 25 26 25 22 17 18 22 24 24 23 22 22 22 24 20 16 18 20 13 7 11 9 8 9 19 18 17 14 16 17 17 17 17
23 25 27 36 15 14 9 12 12 12 7 16 23 28 28 25 23 22 25 24 21 25 26 22 25 23 22 16 15 16 11 6 10 7 6 12 6 15 19 15 17 17 17 17 17
22 23 24 25 14 8 17 17 13 10 7 10 29 13 30 31 12 26 21 25 27 23 22 25 25 24 22 19 17 12 11 13 7 6 9 15 5 12 19 17 17 18 19 19 18
22 22 22 16 7 15 20 15 10 7 15 9 11 26 28 30 31 21 24 25 25 24 26 27 26 24 22 13 16 11 8 4 2 9 10 13 7 8 17 16 19 20 20 20 19
21 23 17 20 11 21 15 9 7 13 14 15 22 23 25 28 30 27 29 28 25 25 25 28 30 26 24 20 19 20 16 6 8 10 11 12 12 9 16 19 18 18 21 20 20
25 24 19 20 22 19 10 10 15 17 29 12 21 21 25 28 29 31 29 26 31 27 19 21 24 29 24 20 20 21 18 11 10 11 13 6 7 7 16 15 19 19 20 21 21
28 12 12 13 22 11 9 15 15 23 30 29 20 23 23 28 25 30 29 29 31 31 27 22 27 27 27 18 22 22 19 15 20 17 9 8 6 17 17 17 13 20 21 21 20
8 13 16 22 21 12 12 26 22 23 28 25 30 21 22 27 30 31 30 30 31 34 28 20 17 25 28 16 23 23 16 18 14 17 14 10 13 10 15 13 12 10 18 21 21
8 6 13 4 14 11 18 25 25 34 29 26 24 28 23 26 29 24 32 25 32 34 29 30 20 21 23 22 25 18 20 16 19 15 14 5 9 14 16 14 14 17 12 18 21
10 10 5 7 10 12 17 26 26 31 30 28 26 30 25 23 27 31 34 31 30 31 34 29 16 16 30 25 26 24 23 22 13 19 14 10 11 14 17 15 12 9 7 13 20
7 10 13 6 13 15 20 27 28 30 32 29 30 28 20 21 21 29 30 31 27 32 30 25 21 14 20 24 24 27 25 24 20 18 17 11 2 17 16 14 12 10 9 8 11
6 4 6 7 15 20 21 24 26 30 32 31 29 28 20 21 23 21 29 29 32 31 26 25 22 17 16 18 20 23 25 27 25 16 17 17 8 6 12 12 11 5 12 9 7
4 1 2 6 12 20 21 22 23 28 29 28 28 29 22 20 22 23 23 28 27 28 26 25 23 22 23 20 25 24 26 25 25 21 19 18 15 14 11 10 13 12 14 11 9
4 5 4 12 13 22 9 13 23 21 27 28 27 24 21 22 21 16 18 21 23 27 22 27 20 21 24 25 21 28 28 27 26 25 23 23 17 19 19 17 11 14 15 11 11
7 13 8 13 13 13 7 15 14 21 21 27 23 18 22 15 17 19 20 20 20 21 22 22 18 19 20 24 23 21 27 28 25 25 24 20 17 12 8 9 12 14 14 14 12
Wind_Direction
8 4 359 356 355 353 349 345 341 339 336 330 325 324 325 324 309 232 261 140 187 174 211 261 225 245 244 251 251 300 243 58 48 94 118 132 88 88 81 97 96 93 129 135 139
4 1 359 355 352 349 346 342 338 334 331 328 323 321 324 327 290 268 210 154 151 177 231 242 285 293 269 260 34 295 85 67 83 99 90 103 118 129 123 118 97 111 121 141 143
0 358 356 353 350 347 343 339 335 331 327 325 322 320 322 321 280 262 149 185 180 188 254 288 290 278 275 277 148 85 89 96 85 96 97 106 143 167 125 129 134 140 137 145 151
356 354 352 349 345 343 340 336 332 328 323 321 321 320 317 280 272 90 149 172 190 229 253 273 277 271 255 127 48 89 86 106 118 126 101 117 89 61 92 122 129 142 144 148 156
353 349 347 344 341 338 335 332 329 325 320 316 318 322 315 244 250 202 153 155 195 210 242 264 285 303 317 82 134 96 95 102 96 97 119 91 87 88 91 108 125 142 149 152 147
349 346 343 340 338 334 331 327 324 320 317 312 315 315 252 260 262 164 218 206 244 217 243 252 273 315 302 114 207 46 105 108 108 122 109 124 123 110 112 120 134 146 162 158 164
346 344 340 337 334 330 327 322 318 314 311 306 307 283 262 246 294 275 225 245 258 243 240 253 260 292 279 167 147 219 125 134 151 150 151 143 110 114 130 133 145 152 161 162 175
341 340 338 334 331 326 323 318 311 306 301 294 293 258 260 259 244 261 248 252 242 246 252 262 300 277 301 321 83 37 15 342 154 145 159 224 115 132 143 147 151 154 162 168 175
339 336 334 332 327 323 320 313 302 293 281 263 246 219 261 226 232 242 236 234 231 235 243 252 278 264 165 226 75 56 309 282 280 148 166 166 129 145 155 153 157 163 169 173 186
337 335 332 328 325 321 321 301 282 297 223 236 256 273 243 243 223 226 227 230 232 222 231 229 247 249 243 235 80 168 195 229 250 172 241 123 129 152 173 160 163 168 171 177 177
337 335 331 326 321 319 331 323 225 200 232 225 213 213 293 203 222 218 212 211 225 225 221 220 231 234 241 141 181 237 227 206 221 171 133 324 146 155 177 173 162 166 169 183 174
337 336 332 324 318 315 299 272 31 332 291 251 247 260 261 245 208 224 209 203 209 216 217 224 223 230 242 181 174 123 251 175 138 160 239 169 152 157 174 186 164 168 169 177 175
334 335 332 324 317 300 289 292 341 316 275 267 243 240 233 247 233 210 214 202 206 215 212 219 216 233 234 208 212 232 210 118 128 168 242 171 151 153 172 180 159 170 167 175 171
330 332 333 330 297 333 289 23 325 317 275 257 222 231 228 230 223 239 201 205 212 214 216 217 231 219 236 221 211 243 105 212 134 218 215 199 171 166 164 181 166 169 167 176 169
325 326 330 319 299 294 345 333 316 278 267 233 216 183 200 206 203 213 214 205 214 208 214 214 228 220 232 223 200 247 193 169 208 260 242 186 194 178 164 181 178 176 172 177 175
319 319 326 306 295 274 288 294 288 230 233 255 169 184 187 201 216 196 216 204 216 219 217 226 219 233 220 222 235 221 265 54 249 258 250 240 145 187 173 180 179 182 174 173 177
311 307 302 291 274 313 315 290 217 228 221 231 157 183 190 195 204 220 198 194 208 218 215 216 230 222 233 225 206 233 211 196 224 231 242 229 174 154 184 176 180 177 173 176 169
310 301 280 265 265 268 268 249 230 211 231 217 181 194 205 200 202 213 192 201 211 212 216 211 218 225 220 223 215 225 230 230 217 227 234 200 166 138 160 168 175 173 176 173 177
310 289 274 258 233 227 231 224 221 232 199 244 198 189 205 211 198 205 204 208 200 211 216 205 219 219 217 197 230 215 230 244 246 245 268 166 180 158 158 161 168 176 172 174 176
310 298 273 253 248 211 225 234 229 241 256 225 250 203 208 207 201 204 214 201 205 210 217 225 212 219 216 197 222 238 212 228 247 261 273 235 189 207 167 160 171 195 178 172 172
286 278 285 269 212 216 229 234 238 263 267 268 273 259 219 203 214 205 216 201 209 202 214 228 212 209 218 201 217 217 236 215 241 241 245 188 256 194 164 177 196 188 195 174 175
282 277 327 257 217 228 237 239 254 260 263 264 279 281 249 221 209 217 211 208 198 208 208 223 228 222 210 200 212 212 222 230 224 242 264 293 309 158 162 175 180 168 202 190 176
282 289 276 233 254 234 246 242 245 248 256 265 268 272 262 271 243 217 218 208 210 208 201 211 232 227 222 204 194 218 219 223 228 237 248 247 176 155 165 156 155 165 174 181 182
287 286 313 254 244 260 252 242 233 242 253 261 263 273 254 260 266 251 217 218 202 203 213 207 226 233 226 215 186 202 221 212 224 220 236 235 157 185 147 134 146 183 152 181 171
292 159 236 319 318 310 252 266 244 233 238 247 259 256 251 251 255 250 220 210 207 210 197 208 217 230 238 233 198 199 220 218 217 218 228 234 185 202 153 177 164 182 149 166 168
296 332 254 292 273 274 274 270 274 241 228 230 242 248 251 251 262 257 236 219 221 202 199 205 213 226 230 243 234 204 204 224 214 228 237 237 250 170 175 174 174 170 147 157 167
316 324 310 295 289 302 289 259 250 271 226 231 232 244 252 278 338 316 312 254 222 214 189 204 212 205 227 236 245 241 205 205 228 215 228 236 247 256 139 156 163 139 154 170 171